Simultaneous Nadir Overpasses (SNOs) Predictions

Prediction of SNOs between AQUA and METOP-B Satellite Orbit:

Table of predicted SNOs for the next 14.0 days since TLE Epoch: 5/2/2015
Index Date (AQUA) Time (AQUA) Lat,Lon (AQUA) SZA (AQUA ) Date (METOP-B) Time (METOP-B) Lat,Lon (METOP-B) SZA (METOP-B ) Distance(km) Time Diff (sec)
1 05/04/2015 16:21:25 -73.79, 109.22 122.25 05/04/2015 16:21:03 -73.77, 109.27 122.27 2.90 22
2 05/04/2015 17:10:53 73.83, -83.24 57.79 05/04/2015 17:11:41 73.85, -83.22 57.80 1.36 48
3 05/07/2015 11:06:02 73.24, 9.18 56.39 05/07/2015 11:04:54 73.18, 7.01 56.40 69.79 68
4 05/07/2015 11:55:38 -73.77, 175.70 123.07 05/07/2015 11:55:24 -73.79, 175.72 123.05 1.92 14
5 05/07/2015 12:45:07 73.87, -16.88 57.03 05/07/2015 12:46:02 73.86, -16.77 57.01 3.38 55
6 05/10/2015 06:40:20 73.57, 74.94 55.97 05/10/2015 06:39:08 73.49, 74.12 55.93 27.32 72
7 05/10/2015 07:29:50 -73.78,-117.87 123.82 05/10/2015 07:29:44 -73.80,-117.85 123.80 2.23 6
8 05/10/2015 08:19:18 73.83, 49.66 56.23 05/10/2015 08:20:23 73.82, 49.54 56.22 3.79 65
9 05/13/2015 02:14:35 73.71, 141.08 55.40 05/13/2015 02:13:25 73.69, 141.00 55.40 3.20 70
10 05/13/2015 03:04:03 -73.81, -51.50 124.51 05/13/2015 03:04:05 -73.80, -51.43 124.52 2.63 2
11 05/13/2015 03:53:31 73.87, 116.02 55.55 05/13/2015 03:54:43 73.87, 116.08 55.54 1.86 72
12 05/15/2015 21:48:47 73.72,-152.50 54.73 05/15/2015 21:47:45 73.74,-152.48 54.76 1.79 62
13 05/15/2015 22:38:14 -73.77, 15.04 125.23 05/15/2015 22:38:26 -73.79, 14.97 125.20 3.26 12




NCC Satellite Simultaneous Nadir Overpasses (SNOs) Prediction Service
